Regional Weather Roundup
Issued by NWS

Home | Current Version | Previous Version | Graphics & Text | Print | Product List | Glossary On
Versions: 1 2 3 4 5 6 7 8 9 10 11 12 13 14 15 16 17 18 19 20 21 22 23 24 25 26 27 28 29 30 31 32 33 34 35 36 37 38 39 40 41 42 43 44 45 46 47 48 49 50
082
ASUS43 KLOT 300703
RWRIL

ILLINOIS REGIONAL WEATHER ROUNDUP
NATIONAL WEATHER SERVICE CHICAGO/ROMEOVILLE IL
200 AM CDT SUN APR 30 2017

NOTE: "FAIR" INDICATES FEW OR NO CLOUDS BELOW 12,000 FEET WITH NO
SIGNIFICANT WEATHER AND/OR OBSTRUCTIONS TO VISIBILITY.

* THESE STATIONS ARE NOT UNDER NWS QUALITY CONTROL. THEY ALSO MAY NOT
  REPORT WEATHER SUCH AS PRECIPITATION OR FOG.

ILZ001-002-007-009-015-016-024-300800-
NORTHWEST ILLINOIS

CITY           SKY/WX    TMP DP  RH WIND       PRES   REMARKS
MOLINE         CLOUDY    45  41  86 NE10      29.92R
STERLING*      CLOUDY    44  41  89 NE14G25   29.93F
SAVANNA*       CLOUDY    43  40  89 NE17G24   29.96F
$$

ILZ003-004-008-010-011-017-018-300800-
NORTH CENTRAL ILLINOIS

CITY           SKY/WX    TMP DP  RH WIND       PRES   REMARKS
ROCKFORD       CLOUDY    44  40  85 E18G33    29.96F
FREEPORT*      CLOUDY    42  40  93 NE18      30.00S
ROCHELLE*      CLOUDY    42  41  95 NE22G30   29.93F
DE KALB*       CLOUDY    42  41  95 NE16G28   29.95F
PERU*          CLOUDY    43  42  95 NE17      29.91S
$$

ILZ005-006-012>014-019>023-300800-
NORTHEAST ILLINOIS

CITY           SKY/WX    TMP DP  RH WIND       PRES   REMARKS
CHICAGO-OHARE  LGT RAIN  43  41  93 NE15      29.96F FOG
CHICAGO-MIDWAY LGT RAIN  45  44  97 NE18G24   29.95S FOG
AURORA         CLOUDY    44  42  93 NE21      29.94F FOG
LANSING*       LGT RAIN  46  46 100 N5        29.94R
JOLIET*        CLOUDY    46  46 100 NE7       29.92F FOG
WAUKEGAN       CLOUDY    42  42 100 NE13G24   30.00F FOG
DUPAGE AIRPORT CLOUDY    43  43 100 NE16      29.94F FOG
KANKAKEE*      CLOUDY    48  47  97 NE8       29.89F FOG
WHEELING       LGT RAIN  42  42 100 NE13G21   30.00F FOG
MORRIS*        CLOUDY    46  45  97 NE6       29.90F FOG
NORTHERLY ISL    N/A     44  42  93 N15         N/A
$$

LMZ740>746-300800-
SOUTHERN LAKE MICHIGAN

STATION/POSITION SKY/WX   TEMP    WIND        PRES    VSBY  WAVE
                          AIR SEA DIR/SP/G                  HT/PER
                          (F)     (DEG/KT/KT) (MB)    (MI)  (FT/S)
SOUTHERN BUOY              42 41   60/ 25/ 31 1016.0          6/ 6
HARRISON CRIB              45      30/ 14/ 15   N/A
BURNHAM HARBOR             44      30/ 12/ 20   N/A
CALUMET HARBOR             46      20/ 10/ 13 1013.7R
BURNS HARBOR               47     110/ 12/ 18 1013.9R
MICHIGAN CITY              45      80/ 13/ 16   N/A
MICHIGAN CITY 6N           46 47                N/A           6/ 7
ST. JOSEPH                 46 46  130/ 23/ 31 1013.7F         5/ 6
$$

ILZ025>027-034>036-040-047-049-050-058-095>099-300800-
WEST-CENTRAL ILLINOIS

CITY           SKY/WX    TMP DP  RH WIND       PRES   REMARKS
QUINCY         LGT RAIN  45  45 100 N7        29.88R
GALESBURG*     CLOUDY    44  43  98 NE12      29.89F
MACOMB*        CLOUDY    45  45  99 NE15      29.88F
JACKSONVILLE*  LGT RAIN  45  45  99 E5        29.88R
PITTSFIELD*    RAIN      46  46  99 E7        29.88S
$$

ILZ028>032-037-038-041>044-048-051>054-059>061-300800-
CENTRAL ILLINOIS

CITY           SKY/WX    TMP DP  RH WIND       PRES   REMARKS
PONTIAC        CLOUDY    48  47  98 NE17G23   29.86F FOG
BLOOMINGTON    LGT RAIN  46  46 100 NE10      29.85F VSB 1/2
DECATUR        LGT RAIN  51  51 100 S5        29.87R
PEORIA         LGT RAIN  46  46 100 NE14G23   29.86F FOG
LACON*         CLOUDY    45  45  99 NE10      29.88F
LINCOLN*       RAIN      48  48 100 N6        29.83F
SPRINGFIELD    RAIN      49  47  93 SE3       29.88R FOG
TAYLORVILLE    LGT RAIN  48  48  99 N9        29.84S
$$

ILZ033-039-045-046-055>057-062-063-300800-
EAST-CENTRAL ILLINOIS

CITY           SKY/WX    TMP DP  RH WIND       PRES   REMARKS
CHAMPAIGN      LGT RAIN  55  53  93 N8        29.85F
RANTOUL*       LGT RAIN  56  56  97 N7        29.85F
MATTOON        LGT RAIN  62  62 100 S12       29.85R
PARIS*         LGT RAIN N/A N/A N/A SE9       29.85F
$$

ILZ079-100>102-300800-
SOUTHWEST ILLINOIS

CITY           SKY/WX    TMP DP  RH WIND       PRES   REMARKS
ALTON          RAIN      53  53  99 CALM      29.85R
BELLEVILLE     DRIZZLE   63  63 100 S6        29.81S
CAHOKIA*       LGT RAIN  63  61  93 S3        29.82S FOG
$$

ILZ064>066-069>071-074>076-080>082-084>086-088>090-092>094-300800-
SOUTH-CENTRAL ILLINOIS

CITY           SKY/WX    TMP DP  RH WIND       PRES   REMARKS
CARBONDALE     CLOUDY    63  63 100 SE7       29.81F
CAIRO*         CLOUDY    64  64  97 NE7       29.80S
EFFINGHAM*     CLOUDY    63  63 100 SE7       29.85F
MARION         LGT RAIN  64  64 100 E7        29.82F
MT. VERNON     CLOUDY    63  62  97 E8        29.82F
CENTRALIA*     CLOUDY    64  63  97 SE6       29.81F
SALEM*         CLOUDY    64  62  93 SE5       29.82F
METROPOLIS*    CLOUDY    65  64  96 E6        29.81F
$$

ILZ067-068-072-073-078-083-087-091-300800-
SOUTHEAST ILLINOIS

CITY           SKY/WX    TMP DP  RH WIND       PRES   REMARKS
LAWRENCEVILLE  LGT RAIN  64  64 100 SW6       29.90R
FLORA*         CLOUDY   N/A N/A N/A S5        29.85F
FAIRFIELD*     CLOUDY    63  63 100 SE3       29.84S
HARRISBURG*    MOCLDY    64  63  97 E7        29.84F
ROBINSON*      LGT RAIN  63  62  99 S10       29.90R
CARMI*         CLOUDY    64  64 100 E8        29.86F
$$

ABBREVIATIONS USED IN REMARKS
   TC - TEMPERATURE IN CELSIUS
  WCI - WIND CHILL INDEX
   HX - HEAT INDEX
  VSB - VISIBILITY
$$





USA.gov is the U.S. government's official web portal to all federal, state and local government web resources and services.